CW0728 Weather Reports


Display with metric or nautical units.
time (UTC)temp
F
wind
direction
speed
MPH
gust
MPH
rain 1hr
in
rain 24hr
in
rain mn
in
humidity
%
barometer
mb
20260508101619 38 329 0.0 0.0 0.00 0.00 0.00 71 1006.7
20260508100033 38 329 0.0 0.0 0.00 0.00 0.00 69 1006.5
20260508094519 37 211 0.0 0.0 0.00 0.00 0.00 71 1006.4
20260508093006 35 316 0.0 0.0 0.00 0.00 0.00 74 1006.2
20260508091549 35 339 0.0 0.0 0.00 0.00 0.00 76 1006.1
20260508090027 35 332 0.0 0.0 0.00 0.01 0.00 77 1005.8
20260508084501 35 332 0.0 0.0 0.00 0.01 0.00 75 1005.6
20260508083048 36 332 0.0 0.0 0.00 0.01 0.00 74 1005.6
20260508081517 36 332 0.0 0.0 0.00 0.01 0.00 74 1005.6
20260508080055 37 332 0.0 0.0 0.00 0.01 0.00 72 1005.5
20260508074528 37 332 0.0 0.0 0.00 0.01 0.00 71 1005.2
20260508073016 38 332 0.0 0.0 0.00 0.01 0.00 68 1005.3
20260508071550 38 332 0.0 0.0 0.00 0.01 0.00 66 1005.2
20260508070022 39 332 0.0 0.0 0.00 0.01 0.00 65 1005.2
20260508064615 40 332 0.0 0.0 0.00 0.01 0.00 63 1005.2
20260508063035 40 331 0.0 0.0 0.00 0.01 0.00 62 1005.4
20260508061516 41 322 0.0 0.0 0.00 0.01 0.00 61 1005.5
20260508060047 41 323 0.0 0.0 0.00 0.01 0.00 62 1005.5
20260508054520 40 337 0.0 0.0 0.00 0.01 0.00 65 1005.7
20260508053056 41 342 0.0 0.0 0.00 0.01 0.00 65 1005.8
20260508051529 41 350 0.0 0.0 0.00 0.01 0.00 65 1006.0
20260508050020 42 350 0.0 0.0 0.00 0.03 0.00 65 1006.2
20260508044552 42 350 0.0 0.0 0.00 0.03 0.00 65 1006.1
20260508043025 43 350 0.0 0.0 0.00 0.03 0.00 62 1006.1
20260508041601 44 350 0.0 0.0 0.00 0.03 0.00 61 1006.1
20260508040039 44 350 0.0 0.0 0.00 0.04 0.03 59 1006.2
20260508034531 45 350 0.0 0.0 0.00 0.04 0.03 56 1006.1
20260508033007 46 320 0.0 0.0 0.00 0.04 0.03 56 1006.2
20260508031546 47 320 0.0 0.0 0.00 0.04 0.03 53 1006.1
20260508030020 48 320 0.0 0.0 0.00 0.04 0.03 50 1006.2
20260508024555 49 320 0.0 0.0 0.00 0.04 0.03 47 1006.1
20260508023042 50 320 0.0 0.0 0.00 0.04 0.03 47 1006.0
20260508021528 51 9 0.0 0.0 0.00 0.04 0.03 44 1005.8
20260508020058 51 50 0.0 0.0 0.00 0.05 0.03 43 1005.7
20260508014546 52 313 0.0 4.0 0.00 0.05 0.03 41 1005.3
20260508013012 52 66 0.0 2.0 0.00 0.05 0.03 41 1005.2
20260508011549 53 329 0.0 3.0 0.00 0.05 0.03 40 1005.0
20260508010027 53 329 0.0 3.0 0.00 0.05 0.03 40 1004.8
20260508004515 53 333 0.0 5.0 0.00 0.05 0.03 40 1004.6
20260508003058 54 319 0.0 1.0 0.00 0.05 0.03 42 1004.4
20260508001530 55 319 0.0 0.0 0.00 0.05 0.03 40 1004.0
20260508000003 56 319 0.0 2.0 0.00 0.05 0.03 38 1003.9
20260507234543 56 240 1.0 4.0 0.00 0.05 0.03 36 1003.7
20260507233031 57 285 0.0 4.0 0.00 0.05 0.03 35 1003.7
20260507231557 58 336 1.0 5.0 0.00 0.05 0.03 34 1003.6
20260507230035 58 273 1.0 14.0 0.00 0.07 0.03 33 1003.4
20260507224520 59 270 4.0 12.0 0.00 0.07 0.03 33 1003.0
20260507223009 59 257 4.0 12.0 0.00 0.07 0.03 32 1003.0
20260507221541 60 336 3.0 10.0 0.00 0.07 0.03 32 1002.8
20260507220028 61 184 3.0 11.0 0.00 0.13 0.03 31 1002.7
20260507214516 63 52 2.0 8.0 0.00 0.13 0.03 31 1002.8
20260507213056 64 236 3.0 14.0 0.00 0.13 0.03 30 1002.7
20260507211539 64 316 0.0 15.0 0.00 0.13 0.03 30 1002.6
20260507210011 63 237 3.0 13.0 0.00 0.16 0.03 30 1002.5
20260507204552 64 271 1.0 11.0 0.00 0.16 0.03 30 1002.4
20260507203030 63 239 2.0 10.0 0.00 0.16 0.03 31 1002.6
20260507201519 65 265 1.0 8.0 0.00 0.16 0.03 31 1002.5
20260507200103 65 313 2.0 9.0 0.00 0.20 0.03 31 1002.5
20260507194535 65 302 2.0 10.0 0.00 0.20 0.03 32 1002.5
20260507193005 65 302 2.0 11.0 0.00 0.20 0.03 30 1002.5
20260507191548 64 77 2.0 11.0 0.00 0.20 0.03 32 1002.6
20260507190016 64 248 8.0 15.0 0.00 0.20 0.03 31 1002.8
20260507184553 63 345 1.0 9.0 0.00 0.20 0.03 37 1002.7
20260507183039 62 271 4.0 14.0 0.00 0.20 0.03 38 1003.0
20260507181516 62 313 3.0 11.0 0.00 0.20 0.03 40 1002.9
20260507180054 62 327 3.0 12.0 0.00 0.20 0.03 41 1003.0
20260507174527 62 321 3.0 11.0 0.00 0.20 0.03 41 1003.1
20260507173004 60 265 5.0 13.0 0.00 0.20 0.03 42 1003.3
20260507171542 61 360 4.0 12.0 0.00 0.20 0.03 43 1003.4
20260507170019 61 331 1.0 11.0 0.00 0.20 0.03 46 1003.4
20260507164559 61 281 3.0 10.0 0.00 0.20 0.03 48 1003.6
20260507163044 60 309 3.0 14.0 0.00 0.20 0.03 48 1003.8
20260507161519 57 231 0.0 6.0 0.00 0.20 0.03 58 1003.7
20260507160107 56 198 1.0 7.0 0.00 0.20 0.03 68 1004.0
20260507154534 55 199 1.0 9.0 0.00 0.20 0.03 68 1004.2
20260507153011 56 238 1.0 5.0 0.00 0.20 0.03 66 1004.3
20260507151549 59 154 1.0 8.0 0.00 0.20 0.03 60 1004.4
20260507150022 60 234 2.0 11.0 0.00 0.20 0.03 49 1004.4
20260507144549 59 202 0.0 8.0 0.00 0.20 0.03 53 1004.4
20260507143036 59 237 0.0 3.0 0.00 0.20 0.03 61 1004.5
20260507141511 57 319 0.0 2.0 0.00 0.20 0.03 65 1004.6
20260507140101 57 161 0.0 3.0 0.00 0.20 0.03 66 1004.8
20260507134525 55 86 0.0 4.0 0.00 0.20 0.03 71 1005.0
20260507133007 53 288 0.0 7.0 0.00 0.20 0.03 74 1005.1
20260507131546 52 255 1.0 5.0 0.00 0.20 0.03 76 1005.2
20260507130016 51 43 0.0 0.0 0.00 0.20 0.03 80 1005.2
20260507124556 50 11 0.0 0.0 0.00 0.20 0.03 83 1005.3
20260507123031 50 335 0.0 6.0 0.00 0.20 0.03 83 1005.4
20260507121508 49 94 0.0 0.0 0.00 0.20 0.03 85 1005.4
20260507120045 48 319 0.0 0.0 0.00 0.20 0.03 87 1005.4
20260507114518 47 18 0.0 0.0 0.00 0.20 0.03 89 1005.5
20260507113057 47 332 0.0 0.0 0.00 0.20 0.03 90 1005.2
20260507111545 46 308 0.0 0.0 0.00 0.20 0.03 91 1005.5
20260507110021 46 308 0.0 0.0 0.00 0.20 0.03 91 1005.5
20260507104550 46 308 0.0 0.0 0.00 0.20 0.03 91 1005.4
20260507103038 46 308 0.0 0.0 0.00 0.20 0.03 91 1006.1